YAOGAN-30 D

导读

YAOGAN-30 D是中国于2017年11月24日08:00发射的遥感卫星,隶属于中国“遥感”系列遥感星座。遥感卫星主要服务于科学试验、国土资源普查、农作物估产及防灾减灾等领域,该卫星运行在低地轨道,属于中国地球观测系统的组成部分,能获取地球表面遥感数据,为国家经济社会发展提供信息支撑,目前卫星仍在轨正常运行。

基本信息
目录编号:
43028
目录名称:
YAOGAN-30 D
国际标识:
2017-075A
轨道中心:
EARTH
卫星名称:
YAOGAN-30 D
卫星全名:
--
卫星状态:
在轨 (已飞行3216 天)
发射日期:
2017-11-24 UTC
国别 :
中国 (CN)
星等 :
--
该卫星已列入 空间交会检测服务 Space Conjunction Data Service (SCDS) ,当前飞行风险评估等级: 无高风险
轨道信息
数据来源 国际轨道数据
星历时间: 2026-09-14T07:01:03+0800
5小时前
查看轨道信息
半长轴: 6935.204km
偏心率: 0.0002179
轨道倾角: 34.994°
近地点辐角 340.158°
升交点赤经 89.198°
平近点角 19.905°
近地点: 555.555km
远地点: 558.579km
周期: 95.796分钟
每日圈数: 15.031903
详细信息
使用方式:
暂无
2D轨道图
3D轨道图
轨道高度分析图
轨道倾角分析图
轨道综合分析图
查看轨道综合分析图
与全量物体交会距离演化趋势 订阅飞行安全评估服务
与全量物体交会风险概率演化趋势 订阅飞行安全评估服务